CAPE
3 3 4 4 2 2 1 0 0 0 0 0 0 0 0 0 0 0 0 0 0 0 0 0 0 0 0 0 0 0 12 0 0 0 0 0 0 0 0 0 3 7 105 36 0 0 0
2 4 5 3 3 2 1 1 0 0 0 0 0 0 0 0 0 0 0 0 0 0 0 0 0 0 0 0 0 0 0 0 0 0 0 0 0 0 0 0 1 12 48 23 0 5 0
2 1 1 3 3 2 1 1 0 0 0 0 0 0 0 0 0 0 0 0 0 0 0 0 0 0 0 0 0 0 0 0 0 0 0 0 0 0 0 0 0 11 14 1 6 13 1
2 3 2 3 2 2 1 1 1 0 0 0 0 0 0 0 0 0 0 0 0 0 0 0 0 0 0 0 0 0 0 0 0 0 0 0 0 0 0 0 0 0 12 4 0 27 0
4 3 1 3 2 2 1 1 1 0 0 0 0 0 0 0 0 0 0 0 0 0 0 0 0 0 0 0 0 0 0 0 0 0 0 0 0 0 0 0 0 5 35 35 1 17 0
2 3 4 3 3 3 1 1 1 1 0 0 0 0 0 0 0 0 0 0 0 0 0 0 0 0 0 0 0 0 0 0 0 0 0 0 0 0 0 0 0 9 0 0 15 58 0
2 2 2 3 3 3 2 2 1 0 0 0 0 0 0 0 0 0 0 0 0 0 0 0 0 0 0 0 0 0 0 0 0 0 0 0 0 0 0 0 0 0 25 13 5 190 0
3 2 2 3 2 2 2 2 1 1 0 0 0 0 1 0 0 0 0 0 0 0 0 0 0 0 0 0 0 0 0 0 0 0 0 0 0 0 0 0 0 0 19 84 174 120 0
3 3 3 3 3 2 1 1 1 1 0 0 1 1 1 0 0 0 0 0 0 0 0 0 0 0 0 0 0 0 0 0 0 0 0 0 0 0 0 0 0 0 0 0 2 33 1
2 4 3 4 4 3 1 1 1 0 0 1 2 1 0 1 0 0 0 0 0 0 0 0 0 0 0 0 0 0 0 0 0 0 0 0 0 0 0 0 0 0 0 0 0 0 0
1 3 3 3 2 3 1 1 1 0 1 1 2 2 1 2 0 0 0 0 0 0 0 0 0 0 0 0 0 0 0 0 0 0 0 0 0 0 0 0 0 0 0 0 0 0 0
1 2 3 3 2 2 1 0 2 2 1 1 2 2 1 0 0 0 0 0 0 0 0 0 0 0 0 0 0 0 0 0 0 0 0 0 0 0 0 0 0 0 0 0 0 0 22
0 1 3 3 3 2 1 1 2 0 1 1 0 0 0 0 0 0 0 0 0 0 0 0 0 0 0 0 0 0 0 0 0 0 0 0 0 0 0 0 0 0 0 3 19 39 44
0 1 2 2 2 2 1 1 1 0 0 0 0 0 0 0 0 0 0 0 0 0 0 0 0 0 0 0 0 0 0 0 0 0 0 0 0 0 0 0 0 0 0 24 218 147 106
0 2 3 3 2 5 2 1 0 0 0 0 0 0 0 0 0 0 0 0 0 0 0 0 0 0 0 0 0 0 0 0 0 0 0 0 0 0 0 0 0 1 2 0 26 51 92
0 0 2 1 4 3 4 1 0 0 0 0 0 0 0 0 0 0 0 0 0 0 0 0 0 0 0 0 0 0 0 0 0 0 0 0 0 0 0 0 0 0 34 42 4 214 230
0 0 0 0 3 4 4 2 0 0 0 0 0 0 0 0 0 0 0 0 0 0 0 0 0 0 0 0 5 0 0 0 0 0 0 0 0 22 13 0 2 9 12 143 109 165 105
0 0 0 1 3 6 4 0 0 0 0 0 0 0 0 0 0 0 0 0 0 0 0 0 0 0 0 0 0 16 1 0 0 0 0 0 0 28 14 23 5 0 14 29 90 453 229
0 0 0 0 0 5 3 0 0 0 0 0 0 0 0 0 0 0 0 0 0 0 0 0 0 0 0 0 0 0 0 0 0 0 0 0 19 0 17 0 59 50 14 74 237 578 582
0 0 0 0 0 3 3 0 0 0 0 0 0 0 0 0 0 0 0 0 0 0 0 0 0 0 0 0 0 0 0 10 0 0 44 2 20 138 1 146 91 172 41 45 151 351 345
0 0 0 0 0 1 4 0 0 0 0 0 0 0 1 0 0 0 0 0 0 0 0 0 0 0 0 0 0 0 0 0 0 0 0 18 286 1 8 25 19 46 31 63 14 23 118
0 0 0 0 0 0 2 0 0 0 0 0 0 0 0 0 0 0 0 0 0 0 0 0 0 0 0 0 0 0 0 0 4 13 0 1 172 53 13 21 7 28 31 29 61 26 3
0 0 0 0 0 0 1 0 0 0 0 0 0 0 0 0 0 0 0 0 0 0 0 0 0 0 0 0 0 0 0 0 93 265 675 317 158 391 51 13 25 44 18 48 25 81 21
0 0 0 0 0 0 0 0 0 0 0 0 0 0 0 0 2 0 0 2 0 0 0 0 0 0 0 0 0 0 0 0 0 26 171 1025 1748 475 181 486 116 37 19 11 1 133 719
0 0 0 0 0 0 0 0 0 0 0 0 0 0 0 0 2 7 5 0 0 0 0 0 0 0 0 0 0 0 0 0 0 0 5 108 743 554 473 136 70 55 49 55 50 191 1243
0 0 0 0 0 0 0 0 0 0 0 0 0 0 0 0 0 0 3 2 0 9 13 0 0 0 0 0 0 15 0 0 0 0 5 130 1400 560 664 273 210 409 662 226 468 642 491
0 0 0 0 0 0 0 0 0 0 0 0 0 0 0 0 0 0 0 1 0 0 3 64 46 2 0 0 0 0 0 0 1 83 271 314 652 518 453 334 323 699 152 427 1011 1121 316
0 0 0 0 0 0 0 0 0 0 0 0 0 0 0 0 0 0 0 0 0 0 0 0 43 13 21 69 11 15 28 66 112 297 560 511 662 458 701 582 485 1552 173 191 128 27 622
0 0 0 0 0 0 0 0 0 0 0 0 0 0 0 0 0 0 0 0 0 0 0 0 1 121 62 247 268 311 111 347 525 344 426 386 1056 154 918 892 673 1453 1974 2606 2276 2476 2034
CIN
-0 -0 -0 -0 -0 -0 -0 -0 -0 -0 -0 -0 -0 -0 -0 -0 -0 -0 -0 -0 -0 -0 -0 -0 -0 -0 -0 -0 -0 -0 -505 -0 -0 -0 -0 -0 -0 -0 -0 -0 -4 -16 -8 -22 -0 -0 -0
-0 -0 -0 -0 -0 -0 -0 -0 -0 -0 -0 -0 -0 -0 -0 -0 -0 -0 -0 -0 -0 -0 -0 -0 -0 -0 -0 -0 -0 -0 -0 -0 -0 -0 -0 -0 -0 -0 -0 -0 -0 -19 -22 -47 -0 -22 -0
-0 -0 -0 -0 -0 -0 -0 -0 -0 -0 -0 -0 -0 -0 -0 -0 -0 -0 -0 -0 -0 -0 -0 -0 -0 -0 -0 -0 -0 -0 -0 -0 -0 -0 -0 -0 -0 -0 -0 -0 -0 -67 -96 -11 -19 -5 -0
-0 -0 -0 -0 -0 -0 -0 -0 -0 -0 -0 -0 -0 -0 -0 -0 -0 -0 -0 -0 -0 -0 -0 -0 -0 -0 -0 -0 -0 -0 -0 -0 -0 -0 -0 -0 -0 -0 -0 -0 -0 -18 -79 -15 -0 -101 -0
-0 -0 -0 -0 -0 -0 -0 -0 -0 -0 -0 -0 -0 -0 -0 -0 -0 -0 -0 -0 -0 -0 -0 -0 -0 -0 -0 -0 -0 -0 -0 -0 -0 -0 -0 -0 -0 -0 -0 -0 -0 -45 -6 -70 -16 -80 -0
-0 -0 -0 -0 -0 -0 -0 -0 -0 -0 -0 -0 -0 -0 -0 -0 -0 -0 -0 -0 -0 -0 -0 -0 -0 -0 -0 -0 -0 -0 -0 -0 -0 -0 -0 -0 -0 -0 -0 -0 -0 -72 -0 -23 -135 -22 -0
-0 -0 -0 -0 -0 -0 -0 -0 -0 -0 -0 -0 -0 -0 -0 -0 -0 -0 -0 -0 -0 -0 -0 -0 -0 -0 -0 -0 -0 -0 -0 -0 -0 -0 -0 -0 -0 -0 -0 -0 -0 -0 -89 -99 -120 -65 -0
-0 -0 -0 -0 -0 -0 -0 -0 -0 -0 -0 -0 -0 -0 -0 -0 -0 -0 -0 -0 -0 -0 -0 -0 -0 -0 -0 -0 -0 -0 -0 -0 -0 -0 -0 -0 -0 -0 -0 -0 -0 -0 -2 -14 -20 -5 -0
-0 -0 -0 -0 -0 -0 -0 -0 -0 -0 -0 -0 -0 -0 -0 -0 -0 -0 -0 -0 -0 -0 -0 -0 -0 -0 -0 -0 -0 -0 -0 -0 -0 -0 -0 -0 -0 -0 -0 -0 -0 -0 -0 -0 -3 -1 -25
-0 -0 -0 -0 -0 -0 -0 -0 -0 -0 -0 -0 -0 -0 -0 -0 -0 -0 -0 -0 -0 -0 -0 -0 -0 -0 -0 -0 -0 -0 -0 -0 -0 -0 -0 -0 -0 -0 -0 -0 -0 -0 -0 -0 -0 -0 -0
-0 -0 -0 -0 -0 -0 -0 -0 -0 -0 -0 -0 -0 -0 -0 -0 -0 -0 -0 -0 -0 -0 -0 -0 -0 -0 -0 -0 -0 -0 -0 -0 -0 -0 -0 -0 -0 -0 -0 -0 -0 -0 -0 -0 -0 -0 -0
-0 -0 -0 -0 -0 -0 -0 -0 -0 -0 -0 -0 -0 -0 -0 -0 -0 -0 -0 -0 -0 -0 -0 -0 -0 -0 -0 -0 -0 -0 -0 -0 -0 -0 -0 -0 -0 -0 -0 -0 -0 -0 -0 -0 -0 -0 -42
-0 -0 -0 -0 -0 -0 -0 -0 -0 -0 -0 -0 -0 -0 -0 -0 -0 -0 -0 -0 -0 -0 -0 -0 -0 -0 -0 -0 -0 -0 -0 -0 -0 -0 -0 -0 -0 -0 -0 -0 -0 -0 -0 -39 -44 -32 -19
-0 -0 -0 -0 -0 -0 -0 -0 -0 -0 -0 -0 -0 -0 -0 -0 -0 -0 -0 -0 -0 -0 -0 -0 -0 -0 -0 -0 -0 -0 -0 -0 -0 -0 -0 -0 -0 -0 -0 -0 -0 -0 -0 -28 -1 -0 -37
-0 -0 -0 -0 -0 -0 -0 -0 -0 -0 -0 -0 -0 -0 -0 -0 -0 -0 -0 -0 -0 -0 -0 -0 -0 -0 -0 -0 -0 -0 -0 -0 -0 -0 -0 -0 -0 -0 -0 -0 -0 -58 -6 -0 -21 -17 -11
-0 -0 -0 -0 -0 -0 -0 -0 -0 -0 -0 -0 -0 -0 -0 -0 -0 -0 -0 -0 -0 -0 -0 -0 -0 -0 -0 -0 -0 -0 -0 -0 -0 -0 -0 -0 -0 -0 -0 -0 -0 -0 -7 -20 -15 -17 -12
-0 -0 -0 -0 -0 -0 -0 -0 -0 -0 -0 -0 -0 -0 -0 -0 -0 -0 -0 -0 -0 -0 -0 -0 -0 -0 -0 -0 -0 -0 -0 -0 -0 -0 -0 -0 -0 -27 -0 -0 -32 -49 -32 -16 -1 -3 -67
-0 -0 -0 -0 -0 -0 -0 -0 -0 -0 -0 -0 -0 -0 -0 -0 -0 -0 -0 -0 -0 -0 -0 -0 -0 -0 -0 -0 -0 -0 -0 -0 -0 -0 -0 -0 -0 -34 -16 -4 -60 -2 -26 -29 -16 -4 -3
-0 -0 -0 -0 -0 -0 -0 -0 -0 -0 -0 -0 -0 -0 -0 -0 -0 -0 -0 -0 -0 -0 -0 -0 -0 -0 -0 -0 -0 -0 -0 -0 -0 -0 -0 -5 -2 -0 -25 -0 -8 -41 -39 -1 -1 -4 -12
-0 -0 -0 -0 -0 -0 -0 -0 -0 -0 -0 -0 -0 -0 -0 -0 -0 -0 -0 -0 -0 -0 -0 -0 -0 -0 -0 -0 -0 -0 -0 -3 -0 -0 -117 -68 -8 -15 -13 -9 -4 -9 -30 -25 -9 -1 -1
-0 -0 -0 -0 -0 -0 -0 -0 -0 -0 -0 -0 -0 -0 -0 -0 -0 -0 -0 -0 -0 -0 -0 -0 -0 -0 -0 -0 -0 -0 -0 -0 -0 -0 -0 -13 -15 -8 -51 -35 -17 -26 -33 -11 -37 -39 -21
-0 -0 -0 -0 -0 -0 -0 -0 -0 -0 -0 -0 -0 -0 -0 -0 -0 -0 -0 -0 -0 -0 -0 -0 -0 -0 -0 -0 -0 -0 -0 -0 -9 -4 -0 -0 -26 -52 -74 -48 -51 -28 -22 -339 -48 -11 -39
-0 -0 -0 -0 -0 -0 -0 -0 -0 -0 -0 -0 -0 -0 -0 -0 -0 -0 -0 -0 -0 -0 -0 -0 -0 -0 -0 -0 -0 -0 -0 -0 -18 -17 -12 -9 -6 -10 -51 -60 -33 -38 -33 -1 -1 -1 -23
-0 -0 -0 -0 -0 -0 -0 -0 -0 -0 -0 -0 -0 -0 -0 -0 -0 -0 -0 -1 -0 -0 -0 -0 -0 -0 -0 -0 -0 -0 -0 -0 -19 -38 -17 -4 -0 -4 -10 -2 -18 -30 -21 -11 -7 -2 -26
-0 -0 -0 -0 -0 -0 -0 -0 -0 -0 -0 -0 -0 -0 -0 -0 -1 -0 -3 -0 -0 -0 -0 -0 -0 -0 -0 -0 -0 -0 -0 -0 -0 -0 -18 -10 -1 -0 -1 -7 -28 -20 -12 -3 -1 -1 -75
-0 -0 -0 -0 -0 -0 -0 -0 -0 -0 -0 -0 -0 -0 -0 -0 -0 -0 -1 -0 -0 -1 -1 -0 -0 -0 -0 -0 -20 -51 -0 -0 -0 -0 -0 -1 -9 -4 -0 -0 -0 -0 -59 -267 -79 -22 -483
-0 -0 -0 -0 -0 -0 -0 -0 -0 -0 -0 -0 -0 -0 -0 -0 -0 -0 -0 -4 -0 -0 -4 -4 -9 -1 -0 -0 -0 -0 -0 -0 -2 -0 -3 -0 -1 -0 -1 -2 -1 -136 -245 -150 -33 -76 -263
-0 -0 -0 -0 -0 -0 -0 -0 -0 -0 -0 -0 -0 -0 -0 -0 -0 -0 -0 -0 -0 -0 -0 -0 -17 -4 -8 -4 -10 -3 -0 -13 -9 -1 -4 -2 -0 -0 -0 -0 -5 -73 -174 -303 -593 -334 -38
-0 -0 -0 -0 -0 -0 -0 -0 -0 -0 -0 -0 -0 -0 -0 -0 -0 -0 -0 -0 -0 -0 -0 -0 -0 -5 -33 -26 -15 -1 -0 -6 -25 -10 -9 -9 -106 -252 -13 -42 -165 -6 -10 -3 -15 -2 -5
Wind_Speed
13 14 15 15 16 16 16 16 17 17 18 18 19 19 19 19 19 20 20 19 19 19 19 19 19 16 10 8 4 11 11 9 8 11 15 14 15 15 16 18 21 7 9 2 6 6 5
13 13 14 15 15 16 16 17 17 17 18 18 19 20 19 20 20 19 20 20 20 20 19 17 16 16 8 13 7 14 12 12 13 16 15 13 13 16 14 16 17 7 13 10 4 5 5
13 13 14 15 15 16 16 17 17 18 18 19 19 19 20 21 22 21 20 21 21 20 19 16 13 7 11 15 1 4 7 12 9 11 13 12 9 11 13 18 14 13 15 12 7 11 2
12 13 14 15 15 16 17 17 17 18 18 19 19 20 20 21 22 23 22 22 21 21 17 14 8 7 8 3 5 7 10 11 9 11 10 9 7 14 18 18 17 12 18 11 8 34 2
12 13 13 14 15 16 17 17 18 19 19 19 20 20 21 22 23 24 24 25 24 17 11 11 7 9 17 3 9 13 14 12 10 11 10 6 8 15 16 17 15 15 16 12 7 29 9
12 13 14 14 15 16 17 17 18 19 19 19 20 21 22 22 23 24 28 26 7 8 9 10 12 10 10 10 6 3 8 7 6 11 13 11 11 14 15 15 15 6 17 16 18 25 2
11 13 14 15 15 16 16 17 18 19 19 19 20 21 22 23 23 21 17 10 7 6 10 14 5 13 5 5 3 9 11 9 12 11 12 15 12 14 18 19 19 20 19 17 11 38 2
11 12 14 15 16 16 17 17 18 19 20 20 20 21 23 24 24 24 8 9 8 7 11 15 20 17 11 2 8 12 12 11 13 13 15 13 12 14 17 18 19 15 7 14 16 15 5
11 11 13 14 15 16 17 18 19 19 20 20 20 21 23 25 26 12 11 8 8 9 8 16 20 17 16 14 14 14 13 13 15 14 15 16 17 13 12 11 10 13 13 13 13 5 4
11 11 12 14 15 16 17 18 20 20 19 19 20 21 21 27 6 10 9 4 8 4 7 15 19 11 15 15 17 16 15 14 12 15 14 14 16 7 9 11 14 14 15 14 13 10 9
12 12 13 14 14 15 16 18 19 20 20 20 20 21 21 9 13 6 8 7 9 6 7 7 16 4 13 16 13 20 15 14 15 14 10 12 12 14 10 12 12 12 13 12 4 8 12
12 13 14 14 15 16 16 17 18 19 20 20 20 19 22 3 8 13 10 9 7 8 12 6 8 10 15 19 19 9 17 14 11 14 13 14 17 7 12 11 12 11 15 11 8 11 12
12 13 14 15 16 16 17 17 18 19 20 21 21 17 12 10 5 9 8 7 7 11 13 13 9 13 17 18 18 13 14 16 14 11 14 15 16 11 14 14 16 8 13 9 10 11 12
11 13 14 15 16 17 17 18 19 20 21 22 23 20 9 9 10 9 8 9 12 10 22 7 5 13 17 18 20 20 16 15 18 20 13 13 15 19 14 16 10 13 16 12 13 6 6
9 11 13 14 16 17 18 19 20 21 22 23 30 6 6 9 12 8 8 13 11 16 14 17 10 13 12 13 16 19 21 18 18 18 17 15 16 10 18 13 16 16 12 18 19 16 6
10 12 14 15 15 17 18 19 21 22 22 19 7 10 12 10 8 7 9 16 17 20 7 9 8 10 14 17 16 17 16 19 19 18 18 17 11 17 15 13 15 18 10 11 9 9 12
10 11 13 15 15 16 18 19 20 23 25 21 5 7 8 8 7 8 11 16 19 24 4 5 10 16 20 19 16 17 17 17 17 19 15 13 13 15 11 10 13 8 11 10 14 8 0
9 11 11 13 15 16 18 19 20 21 28 5 7 8 8 8 8 9 13 20 14 16 9 8 11 16 18 13 15 14 14 15 13 13 16 12 9 13 19 15 14 17 15 16 10 9 8
9 10 11 12 16 16 18 19 19 18 16 8 6 6 7 8 8 11 17 21 20 8 8 12 12 13 16 13 10 13 16 6 8 4 4 11 10 12 15 16 15 16 20 13 12 11 14
8 9 10 12 14 15 17 18 18 17 14 5 7 3 6 7 12 17 16 17 10 7 15 12 14 12 14 11 14 10 18 2 2 9 9 8 9 9 14 13 11 14 15 16 16 9 10
7 8 9 11 13 15 16 18 19 19 18 5 5 6 6 6 11 14 13 13 14 15 11 12 12 11 10 9 14 14 17 17 6 4 8 6 9 13 16 19 18 18 18 22 19 17 16
9 8 9 11 13 15 16 18 20 21 25 5 6 7 11 11 5 7 6 7 11 11 13 13 14 15 17 15 16 15 16 13 14 10 12 11 9 11 17 19 21 20 8 7 31 15 15
9 9 9 11 13 15 17 18 20 22 19 6 7 9 5 9 7 9 10 13 14 12 12 6 11 12 14 12 14 18 14 13 11 10 10 11 10 10 14 17 18 19 20 14 13 10 12
10 9 9 10 12 14 17 18 19 19 17 7 6 7 8 10 10 10 14 1 1 6 8 14 15 13 9 11 12 10 13 14 15 13 10 9 8 8 12 14 19 15 19 20 16 11 10
11 9 8 9 11 13 16 18 18 19 18 7 8 6 8 11 14 11 4 4 8 3 10 14 11 4 8 9 6 6 11 15 18 19 11 12 9 9 12 14 17 19 20 21 13 12 12
13 10 8 7 9 11 14 17 18 18 19 9 6 5 7 9 8 13 9 4 9 10 14 11 11 3 6 8 8 12 12 15 16 18 16 16 10 11 12 15 20 15 7 14 19 7 17
13 10 8 7 7 9 12 15 18 19 18 9 6 6 5 8 2 8 6 8 9 8 7 11 12 5 12 9 11 13 14 17 16 17 16 14 10 14 13 14 17 10 8 11 4 5 15
13 11 9 7 6 7 10 13 15 18 18 11 7 4 5 8 4 6 7 6 7 4 8 11 9 8 8 10 10 13 8 4 9 13 14 10 10 12 13 17 15 15 12 4 7 18 15
13 11 9 8 7 7 8 11 14 16 18 16 5 3 5 6 8 7 7 5 6 4 6 8 8 5 7 8 8 8 6 6 10 11 13 5 4 2 10 4 3 11 10 12 2 0 9
Wind_Direction
16 14 14 9 7 4 2 0 357 354 350 348 346 343 339 337 332 325 323 317 317 311 311 311 313 319 312 242 226 144 176 191 217 226 238 246 260 265 261 271 288 265 296 134 234 160 313
13 13 10 8 4 1 359 358 354 352 348 347 344 340 337 334 328 323 319 317 312 308 305 308 311 315 260 273 89 147 195 179 230 221 237 241 263 268 300 291 292 326 297 269 251 188 183
10 8 7 6 3 360 357 354 351 349 347 345 342 339 335 332 327 322 319 313 308 305 304 306 305 292 273 257 294 197 201 228 239 253 266 233 292 294 275 268 283 260 273 256 286 259 291
10 7 4 4 360 357 354 351 349 347 345 343 340 337 334 330 324 320 317 308 303 298 296 289 299 273 263 132 309 228 249 246 226 245 262 316 286 274 276 284 291 260 262 29 69 278 247
7 4 1 1 359 355 352 349 347 346 345 342 338 336 333 328 324 320 316 306 294 282 261 278 265 225 272 140 219 229 227 244 221 221 240 262 270 262 253 250 259 240 245 168 216 232 293
2 0 357 356 357 353 349 347 345 344 343 341 337 334 329 326 324 322 319 291 276 300 219 248 260 272 240 242 207 245 235 239 273 263 230 217 233 240 239 256 241 136 1 331 302 274 83
360 355 353 351 352 351 347 345 345 342 341 339 335 330 327 324 321 324 334 318 223 177 224 252 173 241 156 240 209 237 240 220 237 245 258 230 230 229 234 237 266 293 149 143 258 273 322
353 352 350 350 346 348 346 345 343 341 340 337 333 329 325 323 318 316 283 274 55 321 293 281 260 261 274 250 275 219 211 221 222 237 232 260 222 258 250 253 260 306 280 216 219 210 215
352 352 352 347 345 346 343 342 341 339 337 334 331 327 325 321 317 289 247 320 326 312 266 271 244 242 230 221 243 253 197 225 249 224 247 245 247 212 250 274 277 270 285 294 283 329 246
346 349 350 347 345 343 342 340 337 336 333 330 327 325 326 325 289 333 261 33 289 324 274 267 215 218 225 221 234 241 204 229 225 254 246 252 255 249 257 255 267 260 263 258 273 300 276
341 347 346 346 343 341 341 337 333 332 329 328 326 325 322 336 313 272 18 303 324 261 272 244 176 146 208 203 273 191 236 211 248 230 254 257 236 268 219 252 240 273 282 309 310 278 276
338 342 340 343 341 339 339 334 329 328 326 325 322 322 326 190 214 259 307 297 264 234 238 196 148 194 219 205 236 221 199 225 233 256 258 250 284 261 270 237 260 265 275 267 273 265 255
332 336 338 341 338 339 337 329 327 327 323 321 316 312 304 309 245 347 311 260 224 240 231 269 202 207 208 212 217 203 194 207 224 221 246 243 247 233 254 240 235 244 262 239 234 228 237
326 330 336 335 336 338 333 330 328 327 327 322 313 307 234 242 290 261 267 227 236 231 249 267 327 208 214 217 206 227 211 218 217 245 251 217 230 217 212 242 240 210 240 249 243 271 79
321 325 328 328 338 334 331 330 329 329 329 328 309 219 231 232 223 252 241 225 216 250 235 269 218 249 258 242 244 196 223 229 220 213 249 269 265 209 203 202 239 242 207 256 275 288 226
317 325 328 332 331 332 329 331 331 330 329 336 311 283 240 142 185 217 232 244 239 243 299 302 270 256 234 256 222 238 217 225 247 226 209 255 290 275 179 207 219 248 265 228 249 276 281
306 317 323 328 329 330 330 331 332 332 327 329 248 235 111 155 181 222 227 233 236 264 335 274 286 277 280 282 262 220 234 240 219 248 214 216 253 278 205 191 240 204 254 264 262 240 221
297 308 317 323 326 328 330 335 337 340 332 271 275 264 137 167 201 223 233 238 259 271 140 267 268 284 289 286 302 293 226 239 228 224 245 203 243 243 271 194 199 258 221 226 259 271 231
292 303 315 326 330 333 335 337 339 346 357 314 260 218 162 207 228 225 224 252 246 255 278 264 239 264 281 291 302 298 285 18 28 189 5 248 224 253 262 268 204 213 243 259 235 241 270
290 304 316 326 329 332 334 336 340 343 347 284 275 226 149 208 259 289 288 219 240 208 278 278 271 259 260 249 269 278 282 234 100 289 5 320 265 220 254 238 254 213 240 247 257 264 262
278 304 318 327 330 334 338 338 339 341 339 271 250 279 1 180 219 247 264 303 218 244 201 247 259 264 273 263 258 252 264 295 253 226 262 276 269 279 271 271 283 273 239 220 233 236 250
267 293 317 330 334 337 342 344 343 344 332 248 294 342 349 277 347 296 227 242 268 266 241 209 237 240 233 250 262 265 257 279 280 244 206 243 247 264 276 279 271 271 219 64 265 227 238
256 283 309 327 336 339 344 348 347 352 337 288 16 298 263 302 200 240 239 230 237 235 264 295 273 232 249 268 242 256 300 307 292 313 314 218 242 237 256 267 264 267 263 257 270 248 247
246 270 297 321 336 340 343 349 349 354 5 306 312 303 280 261 245 229 242 184 325 270 269 267 232 256 320 343 315 288 279 279 278 268 269 277 267 258 260 260 253 267 266 261 250 253 128
237 252 282 312 332 340 343 346 349 350 355 305 316 313 296 287 301 225 200 242 252 254 233 261 281 267 10 318 313 281 270 261 263 267 244 258 261 244 245 256 261 263 258 259 234 250 34
227 239 262 294 324 336 341 345 346 348 354 310 343 314 285 290 28 1 353 345 280 285 200 217 227 65 302 267 236 239 242 240 231 243 257 250 211 256 261 247 251 264 355 7 338 146 97
218 227 248 276 308 331 339 343 344 347 350 326 305 13 280 284 15 341 342 344 343 324 305 30 0 287 221 238 237 236 234 242 233 229 228 228 237 227 232 255 257 9 5 70 13 20 150
208 215 233 256 285 316 334 339 342 344 349 340 306 24 332 310 4 7 344 328 334 340 337 358 284 207 258 235 243 252 279 310 286 251 238 232 228 227 251 234 225 10 360 55 188 311 144
200 206 222 241 267 299 327 337 339 342 344 340 270 38 342 268 330 326 289 290 278 311 305 314 307 354 354 312 13 335 291 342 349 296 308 221 100 28 317 84 60 92 78 29 131 304 57